N4FLB Weather Reports


Display with metric or nautical units.
time (UTC)temp
F
wind
direction
speed
MPH
gust
MPH
rain 1hr
in
rain 24hr
in
rain mn
in
humidity
%
barometer
mb
20260504015424 59 0 0.0 0.0 0.00 0.00 0.00 72 1019.6
20260504014503 59 0 0.0 0.0 0.00 0.00 0.00 70 1019.5
20260504013603 60 0 0.0 0.0 0.00 0.00 0.00 67 1019.4
20260504012703 60 0 0.0 0.0 0.00 0.00 0.00 65 1019.4
20260504011803 61 0 0.0 0.0 0.00 0.00 0.00 64 1019.4
20260504010903 62 0 0.0 0.0 0.00 0.00 0.00 63 1019.3
20260504010024 63 0 0.0 0.0 0.00 0.00 0.00 61 1019.2
20260504005403 64 0 0.0 0.0 0.00 0.00 0.00 60 1019.2
20260504004503 65 0 0.0 0.0 0.00 0.00 0.00 57 1019.0
20260504003603 66 0 0.0 0.0 0.00 0.00 0.00 55 1019.0
20260504002705 68 0 0.0 0.0 0.00 0.00 0.00 51 1018.7
20260504001805 70 0 0.0 0.0 0.00 0.00 0.00 49 1018.6
20260504000905 71 0 0.0 0.0 0.00 0.00 0.00 47 1018.7
20260504000005 71 48 0.0 2.0 0.00 0.00 0.00 45 1018.6
20260503235405 71 19 1.0 4.0 0.00 0.00 0.00 44 1018.5
20260503234505 72 343 1.0 4.0 0.00 0.00 0.00 42 1018.5
20260503233605 72 348 1.0 5.0 0.00 0.00 0.00 42 1018.7
20260503232705 72 29 1.0 4.0 0.00 0.00 0.00 40 1018.6
20260503231805 73 6 2.0 4.0 0.00 0.00 0.00 41 1018.7
20260503230904 73 3 2.0 4.0 0.00 0.00 0.00 41 1018.8
20260503230005 73 354 2.0 5.0 0.00 0.00 0.00 40 1018.8
20260503225405 73 326 2.0 8.0 0.00 0.00 0.00 41 1018.9
20260503224504 73 8 2.0 5.0 0.00 0.00 0.00 41 1018.9
20260503223604 73 353 3.0 10.0 0.00 0.00 0.00 39 1018.8
20260503222705 73 332 2.0 10.0 0.00 0.00 0.00 40 1019.0
20260503221804 73 328 3.0 8.0 0.00 0.00 0.00 40 1019.0
20260503220904 73 360 3.0 7.0 0.00 0.00 0.00 41 1019.1
20260503220004 73 27 2.0 8.0 0.00 0.00 0.00 40 1019.2
20260503215404 73 15 3.0 7.0 0.00 0.00 0.00 40 1019.1
20260503214504 73 4 3.0 8.0 0.00 0.00 0.00 40 1019.1
20260503213604 73 339 4.0 9.0 0.00 0.00 0.00 41 1019.3
20260503212704 73 30 2.0 8.0 0.00 0.00 0.00 41 1019.4
20260503211804 73 345 3.0 8.0 0.00 0.00 0.00 41 1019.4
20260503210904 73 9 3.0 10.0 0.00 0.00 0.00 38 1019.5
20260503210005 73 327 4.0 10.0 0.00 0.00 0.00 40 1019.4
20260503205404 73 321 5.0 12.0 0.00 0.00 0.00 40 1019.4
20260503204504 73 329 5.0 14.0 0.00 0.00 0.00 37 1019.6
20260503203604 73 333 5.0 13.0 0.00 0.00 0.00 37 1019.7
20260503202704 72 353 3.0 10.0 0.00 0.00 0.00 40 1019.8
20260503201825 72 311 6.0 12.0 0.00 0.00 0.00 40 1019.9
20260503200904 72 327 8.0 14.0 0.00 0.00 0.00 39 1020.1
20260503200004 72 317 5.0 11.0 0.00 0.00 0.00 43 1020.3
20260503195404 71 324 7.0 13.0 0.00 0.00 0.00 43 1020.3
20260503194504 71 330 7.0 14.0 0.00 0.00 0.00 43 1020.5
20260503193604 71 326 7.0 16.0 0.00 0.00 0.00 41 1020.6
20260503192704 71 321 7.0 13.0 0.00 0.00 0.00 42 1020.9
20260503191804 71 329 5.0 11.0 0.00 0.00 0.00 42 1020.9
20260503190904 71 326 5.0 14.0 0.00 0.00 0.00 43 1021.1
20260503190004 70 323 6.0 12.0 0.00 0.00 0.00 43 1021.3
20260503185404 70 321 6.0 15.0 0.00 0.00 0.00 43 1021.3
20260503184504 70 334 6.0 12.0 0.00 0.00 0.00 41 1021.5
20260503183603 70 324 5.0 11.0 0.00 0.00 0.00 42 1021.5
20260503182704 70 334 5.0 13.0 0.00 0.00 0.00 42 1021.5
20260503181825 70 320 5.0 10.0 0.00 0.00 0.00 42 1021.5
20260503180903 70 336 5.0 13.0 0.00 0.00 0.00 40 1021.8
20260503180004 69 322 6.0 14.0 0.00 0.00 0.00 45 1022.0
20260503175404 69 322 6.0 14.0 0.00 0.00 0.00 46 1022.0
20260503174503 69 325 7.0 14.0 0.00 0.00 0.00 43 1022.4
20260503173603 68 323 7.0 15.0 0.00 0.00 0.00 42 1022.5
20260503172724 68 318 7.0 15.0 0.00 0.00 0.00 42 1022.6
20260503171803 68 327 7.0 15.0 0.00 0.00 0.00 44 1022.8
20260503170924 68 321 5.0 12.0 0.00 0.00 0.00 45 1022.8
20260503150905 64 326 4.0 9.0 0.00 0.00 0.00 52 1023.4
20260503130904 55 354 2.0 4.0 0.00 0.00 0.00 77 1022.7
20260503080903 50 360 1.0 4.0 0.00 0.09 0.00 90 1020.6
20260503072703 50 16 2.0 5.0 0.00 0.12 0.00 93 1020.0
20260503071824 50 9 1.0 5.0 0.00 0.13 0.00 93 1019.8
20260503070903 50 354 1.0 3.0 0.00 0.14 0.00 95 1019.7
20260503054505 50 0 0.0 0.0 0.00 0.25 0.00 96 1019.6
20260503053605 50 0 0.0 0.0 0.00 0.26 0.00 95 1019.6
20260503052726 50 0 0.0 0.0 0.00 0.28 0.00 95 1019.6
20260503051826 50 0 0.0 0.0 0.00 0.30 0.00 94 1019.6
20260503050905 50 0 0.0 0.0 0.00 0.31 0.00 94 1019.5
20260503050005 50 0 0.0 0.0 0.00 0.32 0.00 94 1019.4
20260503045404 51 0 0.0 0.0 0.00 0.32 0.32 93 1019.4
20260503044504 51 0 0.0 0.0 0.00 0.33 0.32 93 1019.3
20260503043604 51 0 0.0 0.0 0.00 0.33 0.32 93 1019.4
20260503042705 51 0 0.0 0.0 0.00 0.34 0.32 92 1019.3
20260503041804 52 0 0.0 0.0 0.00 0.34 0.32 90 1019.3
20260503040904 52 0 0.0 0.0 0.00 0.35 0.32 90 1019.2
20260503040004 52 0 0.0 0.0 0.00 0.36 0.32 89 1019.1
20260503035404 52 0 0.0 0.0 0.00 0.37 0.32 88 1019.1
20260503034504 52 0 0.0 0.0 0.00 0.38 0.32 87 1019.0
20260503033604 53 0 0.0 0.0 0.00 0.38 0.32 86 1019.0
20260503032725 53 0 0.0 0.0 0.00 0.38 0.32 84 1018.9
20260503031804 53 0 0.0 0.0 0.00 0.38 0.32 86 1019.0
20260503030904 54 0 0.0 0.0 0.00 0.38 0.32 85 1018.9
20260503030004 54 331 1.0 2.0 0.00 0.39 0.32 84 1018.9
20260503025404 54 331 0.0 2.0 0.00 0.39 0.32 83 1018.9
20260503024504 54 331 0.0 1.0 0.00 0.39 0.32 82 1018.8
20260503023625 55 0 0.0 0.0 0.00 0.40 0.32 80 1018.7
20260503022704 56 0 0.0 0.0 0.00 0.40 0.32 78 1018.6
20260503021804 56 0 0.0 0.0 0.00 0.41 0.32 76 1018.4
20260503020904 56 331 0.0 2.0 0.00 0.43 0.32 74 1018.3
20260503020004 57 331 0.0 2.0 0.00 0.44 0.32 71 1018.1